This is the latest recevied weather packets stored in our database for station/object KM4RT-13. If no packets are shown the sender has not sent any weather packets the latest 10 day(s).
| Time | Temp. | Humidity | Pressure | Rain* | Wind** | Luminosity | Snow |
|---|---|---|---|---|---|---|---|
| 1777817834 | 13.89° C | 62% | 1019.9 hPa | 0 mm | - | 448 W/m² | - |
| 1777817531 | 13.89° C | 62% | 1019.6 hPa | 0 mm | - | 433 W/m² | - |
| 1777817227 | 13.89° C | 62% | 1019.8 hPa | 0 mm | - | 416 W/m² | - |
| 1777816925 | 13.89° C | 63% | 1019.6 hPa | 0 mm | - | 400 W/m² | - |
| 1777816621 | 13.89° C | 64% | 1019.4 hPa | 0 mm | - | 211 W/m² | - |
| 1777816318 | 13.33° C | 68% | 1019.5 hPa | 0 mm | - | 348 W/m² | - |
| 1777816015 | 12.78° C | 67% | 1019.5 hPa | 0 mm | - | 353 W/m² | - |
| 1777815713 | 12.78° C | 68% | 1019.5 hPa | 0 mm | - | 338 W/m² | - |
| 1777815410 | 12.78° C | 68% | 1019.8 hPa | 0 mm | - | 252 W/m² | - |
| 1777815107 | 12.78° C | 70% | 1019.5 hPa | 0 mm | - | 306 W/m² | - |
| 1777814803 | 12.22° C | 74% | 1019.6 hPa | 0 mm | - | 291 W/m² | - |
| 1777814500 | 11.67° C | 75% | 1019.5 hPa | 0 mm | - | 66 W/m² | - |
| 1777814198 | 11.67° C | 76% | 1019.4 hPa | 0 mm | - | 238 W/m² | - |
| 1777813894 | 11.11° C | 82% | 1019.5 hPa | 0 mm | - | 68 W/m² | - |
| 1777813592 | 10.56° C | 83% | 1019.3 hPa | 0 mm | - | 209 W/m² | - |
| 1777813289 | 10.56° C | 85% | 1019.4 hPa | 0 mm | - | 104 W/m² | - |
| 1777812986 | 10° C | 88% | 1019.6 hPa | 0 mm | - | 165 W/m² | - |
| 1777812684 | 9.44° C | 90% | 1019.4 hPa | 0 mm | - | 149 W/m² | - |
| 1777812380 | 8.89° C | 92% | 1019.3 hPa | 0 mm | - | 135 W/m² | - |
| 1777812079 | 8.89° C | 94% | 1019.4 hPa | 0 mm | - | 120 W/m² | - |
| 1777811777 | 8.89° C | 96% | 1019.3 hPa | 0 mm | - | 108 W/m² | - |
| 1777811474 | 8.33° C | 98% | 1019.3 hPa | 0 mm | - | 97 W/m² | - |
| 1777811170 | 7.78° C | 99% | 1019.5 hPa | 0 mm | - | 86 W/m² | - |
| 1777810868 | 7.78° C | 99% | 1019.3 hPa | 0 mm | - | 76 W/m² | - |
| 1777810564 | 7.78° C | 99% | 1019.3 hPa | 0 mm | - | 68 W/m² | - |
* Rain latest hour (hover to see other rain measurements)
** Current wind speed in m/s (hover to see current wind gust speed)